This demonstration page uses our WeatherBlox Daily Observations layout. Learn more.

Left ArrowRight Arrow

Hourly Observations for March 16, 2021

Temp ( °F °C ) Dew Point ( °F °C ) Humidity (%) Winds ( mph kmh ) Pressure ( in mb ) Visibility ( mi km ) Precip ( " mm )
12:15 am 00:15 Cloudy with Fog 38 3.3 37 3 98 98 SE 5 7 29.89 1012 1 1 N/A
12:35 am 00:35 Cloudy with Fog 37 3 37 2.5 97 97 SSE 5 7 29.89 1012 1 1 N/A
12:55 am 00:55 Cloudy with Fog 37 2.7 36 2.3 97 97 SE 5 7 29.89 1012 0 0 N/A
1:15 am 01:15 Cloudy with Fog 37 2.8 37 2.5 98 98 ESE 7 11 29.88 1012 0 0 N/A
1:35 am 01:35 Cloudy with Fog 37 2.6 36 2.2 97 97 ESE 7 11 29.88 1012 0 0 N/A
1:55 am 01:55 Cloudy with Fog 37 2.5 36 2.1 97 97 SE 7 11 29.87 1012 0 0 N/A
2:15 am 02:15 Cloudy with Fog 36 2.3 36 2 98 98 SSE 3 6 29.88 1012 0 0 N/A
2:35 am 02:35 Cloudy with Fog 36 2.1 35 1.8 98 98 SE 7 11 29.87 1012 0 0 N/A
2:55 am 02:55 Cloudy with Fog 35 1.8 35 1.5 98 98 SSE 7 11 29.89 1012 0 0 N/A
3:15 am 03:15 Cloudy with Fog 35 1.6 34 1.3 98 98 SSE 5 7 29.89 1012 0 0 N/A
3:35 am 03:35 Cloudy with Fog 35 1.5 34 1.2 98 98 SSE 3 6 29.90 1013 0 0 N/A
3:55 am 03:55 Cloudy with Fog 35 1.6 35 1.4 99 99 SE 3 6 29.90 1012 0 0 N/A
4:15 am 04:15 Cloudy with Fog 36 2 35 1.7 98 98 SSE 3 6 29.89 1012 0 0 N/A
4:35 am 04:35 Cloudy with Fog 36 2.3 36 2 98 98 SSE 6 9 29.88 1012 0 0 N/A
4:55 am 04:55 Cloudy with Fog 36 2.1 35 1.8 98 98 S 5 7 29.88 1012 1 1 N/A
5:15 am 05:15 Cloudy with Fog 35 1.8 35 1.5 98 98 S 5 7 29.89 1012 1 1 N/A
5:35 am 05:35 Cloudy with Fog 35 1.5 34 1.2 98 98 S 3 6 29.89 1012 1 1 N/A
5:55 am 05:55 Cloudy with Fog 35 1.6 34 1.3 98 98 SSE 3 6 29.90 1012 0 0 N/A
6:15 am 06:15 Cloudy with Fog 35 1.5 34 1.1 97 97 ESE 3 6 29.90 1013 0 0 N/A
6:35 am 06:35 Cloudy with Fog 34 1.2 34 1 99 99 N N/A 29.91 1013 1 1 N/A
6:55 am 06:55 Cloudy with Fog 34 1.3 34 1 98 98 SE 3 6 29.90 1013 0 0 N/A
7:15 am 07:15 Cloudy with Fog 34 1.1 33 0.8 98 98 S 3 6 29.90 1013 0 0 N/A
7:35 am 07:35 Cloudy with Fog 34 1 33 0.7 98 98 S 5 7 29.90 1013 0 0 N/A
7:55 am 07:55 Cloudy with Fog 33 0.7 33 0.5 99 99 S 7 11 29.92 1013 0 0 N/A
8:15 am 08:15 Cloudy with Fog 33 0.6 33 0.3 98 98 S 6 9 29.92 1013 0 0 N/A
8:35 am 08:35 Cloudy with Fog 34 1 33 0.6 97 97 S 6 9 29.92 1013 0 0 N/A
8:55 am 08:55 Cloudy with Fog 34 1.1 33 0.8 98 98 S 5 7 29.91 1013 N/A N/A
9:15 am 09:15 Cloudy with Fog 34 1.3 34 1 98 98 WNW 5 7 29.94 1014 0 0 N/A
9:35 am 09:35 Cloudy with Fog 35 1.8 35 1.5 98 98 N N/A 29.94 1014 N/A N/A
9:55 am 09:55 Cloudy with Fog 36 2.1 35 1.8 98 98 N N/A 29.93 1014 0 0 N/A
10:15 am 10:15 Cloudy with Fog 37 2.5 36 2.2 98 98 N N/A 29.93 1014 0 0 N/A
10:35 am 10:35 Cloudy with Fog 37 2.6 36 2.4 99 99 N N/A 29.94 1014 0 0 N/A
10:55 am 10:55 Cloudy with Fog 37 3 37 2.7 98 98 N N/A 29.94 1014 0 0 N/A
11:15 am 11:15 Cloudy with Fog 38 3.4 37 3 97 97 N N/A 29.93 1014 0 0 N/A
11:35 am 11:35 Cloudy with Fog 39 4 38 3.6 97 97 W 6 9 29.93 1013 1 1 N/A
11:55 am 11:55 Cloudy with Mist and Fog 40 4.4 39 4.1 98 98 W 3 6 29.92 1013 2 3 N/A
12:15 pm 12:15 Cloudy 41 4.9 40 4.6 98 98 W 5 7 29.92 1013 10 16 N/A
12:35 pm 12:35 Cloudy 42 5.3 41 5 98 98 W 5 7 29.92 1013 10 16 N/A
12:55 pm 12:55 Cloudy 41 4.9 40 4.6 98 98 NW 8 13 29.93 1013 10 16 N/A
1:15 pm 13:15 Cloudy 40 4.6 40 4.3 98 98 NW 9 15 29.92 1013 10 16 N/A
1:35 pm 13:35 Cloudy 41 5 40 4.7 98 98 NW 9 15 29.92 1013 10 16 N/A
1:55 pm 13:55 Cloudy 42 5.6 42 5.3 98 98 N 8 13 29.90 1013 10 16 N/A
2:15 pm 14:15 Cloudy 42 5.5 41 5.1 97 97 NW 12 19 29.90 1013 10 16 N/A
2:35 pm 14:35 Cloudy 43 6 42 5.6 97 97 NNW 8 13 29.89 1012 10 16 N/A
2:55 pm 14:55 Cloudy 43 6.3 42 5.8 97 97 NNW 6 9 29.89 1012 10 16 N/A
3:15 pm 15:15 Cloudy 47 8.4 38 3.6 72 72 NNW 9 15 29.86 1011 10 16 N/A
3:35 pm 15:35 Cloudy 45 7.3 38 3.4 77 77 N 12 19 29.87 1011 10 16 N/A
3:55 pm 15:55 Mostly Cloudy 46 7.8 38 3.1 72 72 NNW 13 20 29.86 1011 10 16 N/A
4:15 pm 16:15 Partly Cloudy 46 7.6 35 1.6 66 66 NNW 10 17 29.87 1012 10 16 N/A
4:35 pm 16:35 Partly Cloudy 45 7.3 35 1.5 67 67 NNW 9 15 29.88 1012 10 16 N/A
4:55 pm 16:55 Mostly Cloudy 46 7.6 35 1.4 65 65 NW 12 19 29.86 1011 10 16 N/A
5:15 pm 17:15 Mostly Cloudy 44 6.9 35 1.7 70 70 N 14 22 29.88 1012 10 16 N/A
5:35 pm 17:35 Mostly Cloudy 45 7.3 35 1.9 69 69 N 13 20 29.88 1012 10 16 N/A
5:55 pm 17:55 Partly Cloudy 45 7 35 1.4 68 68 N 12 19 29.88 1012 10 16 N/A
6:15 pm 18:15 Mostly Cloudy 44 6.6 34 1.3 69 69 N 13 20 29.89 1012 10 16 N/A
6:35 pm 18:35 Mostly Cloudy 44 6.8 35 1.4 69 69 NNE 12 19 29.89 1012 10 16 N/A
6:55 pm 18:55 Partly Cloudy 43 6 33 0.5 68 68 N 9 15 29.91 1013 10 16 N/A
7:15 pm 19:15 Mostly Cloudy 42 5.5 33 0.6 71 71 NNE 9 15 29.93 1014 10 16 N/A
7:35 pm 19:35 Cloudy 42 5.4 34 1.2 75 75 NNE 9 15 29.94 1014 10 16 N/A
7:55 pm 19:55 Cloudy 41 5 34 1.2 77 77 N 6 9 29.97 1015 10 16 N/A
8:15 pm 20:15 Cloudy 41 5 34 1.2 77 77 N 8 13 29.98 1015 10 16 N/A
8:35 pm 20:35 Cloudy 41 4.8 33 0.6 75 75 N 7 11 29.99 1016 10 16 N/A
8:55 pm 20:55 Cloudy 40 4.5 33 0.6 76 76 N 6 9 30.01 1016 10 16 N/A
9:15 pm 21:15 Mostly Cloudy 39 4 32 undefined 75 75 N 8 13 30.02 1016 10 16 N/A
9:35 pm 21:35 Partly Cloudy 38 3.5 32 undefined 78 78 N 7 11 30.02 1017 10 16 N/A
9:55 pm 21:55 Partly Cloudy 38 3.2 32 undefined 80 80 N 13 20 30.02 1017 10 16 N/A
10:15 pm 22:15 Clear 37 3 32 -0.1 80 80 N 13 20 30.03 1017 10 16 N/A
10:35 pm 22:35 Clear 37 2.5 32 -0.2 83 83 N 9 15 30.04 1017 10 16 N/A
10:55 pm 22:55 Clear 36 2.1 31 -0.6 83 83 N 7 11 30.04 1017 10 16 N/A
11:15 pm 23:15 Partly Cloudy 35 1.7 30 -0.9 83 83 NNW 10 17 30.05 1018 10 16 N/A
11:35 pm 23:35 Clear 35 1.4 30 -1 84 84 NNW 9 15 30.05 1018 10 16 N/A
11:55 pm 23:55 Mostly Cloudy 35 1.5 31 -0.6 86 86 N 8 13 30.05 1018 10 16 N/A

Powered by AerisWeather